Location: Alpha Ridge Park
(39.3209°N, 76.9128°W)
Time: 17:09:47
(UTC-04:00)

Altair - Visible Passes

Search period start: 20 May 2019 00:00
Search period end: 30 May 2019 00:00
Orbit: 1501 x 1683 km, 47.2° (Epoch: 19 May)

Date Brightness Start Highest point End Pass type
(mag) Time Alt. Az. Time Alt. Az. Time Alt. Az.
20 May 8.3 04:26:11 13° SSW 04:34:50 46° SE 04:44:17 10° ENE visible
21 May 8.4 04:02:26 17° SSW 04:09:43 42° SE 04:18:58 10° ENE visible
22 May 8.4 03:38:37 21° S 03:44:36 38° SE 03:53:40 10° ENE visible
23 May 8.5 03:14:44 24° S 03:19:30 35° SE 03:28:19 10° ENE visible
23 May 7.8 05:13:29 10° WSW 05:23:39 89° NNW 05:33:52 10° ENE visible
24 May 8.5 02:50:48 26° SSE 02:54:24 32° SE 03:02:57 10° ENE visible
24 May 7.7 04:48:49 12° SW 04:58:26 87° SSE 05:08:39 10° ENE visible
25 May 8.5 02:26:50 26° SSE 02:29:19 29° SE 02:37:32 10° ENE visible
25 May 7.7 04:24:49 17° SW 04:33:13 83° SSE 04:43:25 10° ENE visible
26 May 8.6 02:02:47 26° SE 02:04:15 26° SE 02:12:06 10° ENE visible
26 May 7.7 04:00:47 22° SW 04:08:01 79° SE 04:18:12 10° ENE visible
27 May 8.7 01:38:42 24° SE 01:39:11 24° SE 01:46:37 10° ENE visible
27 May 7.7 03:36:42 28° SW 03:42:49 74° SE 03:52:58 10° ENE visible
28 May 8.8 01:14:34 21° ESE 01:14:34 21° ESE 01:21:03 10° E visible
28 May 7.7 03:12:32 34° SW 03:17:39 70° SE 03:27:44 10° ENE visible
28 May 8.1 05:12:49 10° W 05:22:53 63° NNW 05:32:57 10° ENE visible
29 May 8.9 00:50:22 18° ESE 00:50:22 18° ESE 00:55:25 10° E visible
29 May 7.7 02:48:21 39° SSW 02:52:27 65° SE 03:02:29 10° ENE visible
29 May 8.0 04:47:31 10° W 04:57:35 65° NNW 05:07:42 10° ENE visible
